[ hide orbit diagram ]
For accurate long-term ephemerides, please instead use our Horizons system.This orbit viewer was implemented using two-body methods, and hence should not be used for determining accurate long-term trajectories (over several years or decades) or planetary encounter circumstances.
Orbital Elements at Epoch 2459000.5 (2020-May-31.0) TDB
Reference: JPL 43 (heliocentric ecliptic J2000)
Element | Value | Uncertainty (1-sigma) | Units |
e | .17486516432781 | 3.7395e-08 | |
a | 2.55217572540727 | 7.1358e-09 | au |
q | 2.10588909779048 | 9.6421e-08 | au |
i | 6.065832294970525 | 3.1836e-06 | deg |
node | 152.2095845945712 | 3.8934e-05 | deg |
peri | 52.00115195204446 | 3.9988e-05 | deg |
M | 192.2816370712862 | 1.0521e-05 | deg |
tp | 2459694.312949283926 (2022-Apr-24.81294928) | 4.4446e-05 | TDB |
period | 1489.238610374319 4.08 | 6.2458e-06 1.71e-08 | d yr |
n | .241734264403415 | 1.0138e-09 | deg/d |
Q | 2.998462353024061 | 8.3836e-09 | au |
|
| | Orbit Determination Parameters
Additional Information
|
[ show covariance matrix ]
Physical Parameter Table
Parameter |
Symbol |
Value |
Units |
Sigma |
Reference |
Notes |
absolute magnitude |
H |
10.4 |
|
n/a |
MPO502155 |
IRAS observations used: 19 |
diameter |
diameter |
54.730 |
km |
0.957 |
urn:nasa:pds:neowise_diameters_albedos::2.0[mainbelt] (http://adsabs.harvard.edu/abs/2011ApJ...741...68M) |
|
rotation period |
rot_per |
21.905 |
h |
n/a |
LCDB (Rev. 2020-October); Warner et al., 2009 |
Published Reference List: [Behrend, R. (2005) Observatoire de Geneve web site, http://obswww.unige.ch/~behrend/page_cou.html] [Torno, S.; Oliver, R.L.; Ditteon, R. (2008) Minor Planet Bull. 35, 54-55.] [Ruthroff, J.C. (2009) Minor Planet Bull. 36, 121-122.] [Pilcher, F. (2014) Minor Planet Bull. 41, 205.] [Stephens, R.D. (2014) Minor Planet Bull. 41, 226-230.] [Waszczak, A.; Chang, C.-K.; Ofeck, E.O.; Laher, F.; et al. (2015) Astron. J. 150, A75.] [Galdies, C.; Brincat, S.M.; Grech, W. (2019) Minor Planet Bull. 46, 61-62.] |
geometric albedo |
albedo |
0.031 |
|
0.004 |
urn:nasa:pds:neowise_diameters_albedos::2.0[mainbelt] (http://adsabs.harvard.edu/abs/2011ApJ...741...68M) |
|
B-V |
BV |
0.709 |
|
0.016 |
EAR-A-5-DDR-UBV-MEAN-VALUES-V1.2 |
#obs=4; phase (min.=6.46, mean=7.20, max.=7.70) deg. |
U-B |
UB |
0.366 |
|
0.033 |
EAR-A-5-DDR-UBV-MEAN-VALUES-V1.2 |
#obs=4; phase (min.=6.46, mean=7.20, max.=7.70) deg. |
Tholen spectral type |
spec_T |
C |
|
n/a |
EAR-A-5-DDR-TAXONOMY-V4.0 |
used 7 color indices |
|
232 Russia (A883 BA) Discovered 1883-Jan-31 by Palisa, J. at Vienna |
Reference: DISCOVERY.DB | Last Updated: 2003-08-29 |
|
[ show close-approach data ]
Alternate Designations
A883 BA = 1929 QA = 1954 SV = 1970 SN1 = A921 UA |
|
|